Tracking 22130 objects as of 21-Jan-2021
HD Live streaming from Space Station
objects crossing your sky now

STARLINK-1600

Track STARLINK-1600 now!
10-day predictions
STARLINK-1600 is classified as:


NORAD ID: 46161
Int'l Code: 2020-057AW
Perigee: 553.4 km
Apogee: 556.0 km
Inclination: 53.0 °
Period: 95.6 minutes
Semi major axis: 6925 km
RCS: Unknown
Launch date: August 18, 2020
Source: United States (US)
Launch site: AIR FORCE EASTERN TEST RANGE (AFETR)
aabbcc
Your satellite tracking list
Your tracking list is empty




NASA's NSSDC Master Catalog

Two Line Element Set (TLE):
1 46161U 20057AW  21021.55949641  .00020457  00000-0  13926-2 0  9992
2 46161  53.0169  65.3946 0001856  82.8873 277.2326 15.06283254 24688
Source of the keplerian elements: AFSPC